Crockett, TX

1:19 PM CDT on August 23, 2017 (GMT -0500)
Crockett

Weather History for KDKR - May, 2014

Change the Weather History Date:

Friday, May 2, 2014

  Actual Average (KLFK) Record (KLFK)
Temperature  
Mean Temperature 64 °F -  
Max Temperature 82 °F 81 °F 93 °F (1943)
Min Temperature 46 °F 59 °F 39 °F (1909)
Degree Days  
Heating Degree Days 1    
Growing Degree Days 14 (Base 50)    
Moisture  
Dew Point 48 °F    
Average Humidity 62    
Maximum Humidity 100    
Minimum Humidity 21    
Precipitation  
Precipitation 0.00 in - - ()
Sea Level Pressure  
Sea Level Pressure 30.04 in    
Wind  
Wind Speed 2 mph (West)    
Max Wind Speed 12 mph    
Max Gust Speed 18 mph    
Visibility 10 miles    
Events      
Averages and records for this station are not official NWS values.
T = Trace of Precipitation, MM = Missing Value Source: NWS Daily Summary

Daily Weather History Graph

Daily Weather History Graph

Search for Another Location

Airport or City:

Trip Planner

Search our weather history database for the weather conditions in past years. The results will help you decide how hot, cold, wet, or windy it might be!

Date:

Astronomy

May. 02, 2014 Rise Set
Actual Time 6:35 AM CDT 8:01 PM CDT
Civil Twilight 6:10 AM CDT 8:27 PM CDT
Nautical Twilight 5:39 AM CDT 8:58 PM CDT
Astronomical Twilight 5:07 AM CDT 9:30 PM CDT
Moon 9:17 AM CDT (5/2) 11:21 PM CDT (5/2)
Length of Visible Light 14h 17m
Length of Day
13h 25m
Waxing Crescent, 12% of the Moon is Illuminated
May 2
Waxing Crescent
May 6
First Quarter
May 14
Full
May 21
Last Quarter
May 28
New

Hourly Weather History & Observations

Time (CDT) Temp. Windchill Dew Point Humidity Pressure Visibility Wind Dir Wind Speed Gust Speed Precip Events Conditions
12:10 AM 55.4 °F - 51.8 °F 88% 30.10 in 10.0 mi Calm Calm - N/A   Clear
12:30 AM 55.4 °F - 51.8 °F 88% 30.10 in 10.0 mi Calm Calm - N/A   Clear
12:50 AM 53.6 °F - 48.2 °F 82% 30.09 in 10.0 mi Calm Calm - N/A   Clear
1:10 AM 53.6 °F - 50.0 °F 88% 30.08 in 10.0 mi Calm Calm - N/A   Clear
1:30 AM 53.6 °F - 48.2 °F 82% 30.07 in 10.0 mi North - - N/A   Clear
1:50 AM 51.8 °F - 48.2 °F 88% 30.06 in 10.0 mi Calm Calm - N/A   Clear
2:10 AM 51.8 °F - 48.2 °F 88% 30.06 in 10.0 mi Calm Calm - N/A   Clear
2:30 AM 51.8 °F - 48.2 °F 88% 30.05 in 10.0 mi Calm Calm - N/A   Clear
2:50 AM 50.0 °F - 48.2 °F 94% 30.05 in 10.0 mi Calm Calm - N/A   Clear
3:10 AM 50.0 °F - 48.2 °F 94% 30.06 in 10.0 mi Calm Calm - N/A   Clear
3:30 AM 48.2 °F - 48.2 °F 100% 30.06 in 10.0 mi Calm Calm - N/A   Clear
3:50 AM 48.2 °F - 46.4 °F 93% 30.06 in 10.0 mi Calm Calm - N/A   Clear
4:10 AM 48.2 °F - 46.4 °F 93% 30.06 in 10.0 mi Calm Calm - N/A   Clear
4:30 AM 46.4 °F - 46.4 °F 100% 30.07 in 10.0 mi Calm Calm - N/A   Clear
4:50 AM 46.4 °F - 46.4 °F 100% 30.08 in 10.0 mi Calm Calm - N/A   Clear
5:10 AM 48.2 °F - 46.4 °F 93% 30.09 in 10.0 mi Calm Calm - N/A   Clear
5:30 AM 46.4 °F 45.2 °F 46.4 °F 100% 30.09 in 10.0 mi NE 3.5 mph - N/A   Clear
5:50 AM 46.4 °F 45.2 °F 44.6 °F 93% 30.08 in 10.0 mi NE 3.5 mph - N/A   Clear
6:10 AM 46.4 °F - 44.6 °F 93% 30.09 in 10.0 mi Calm Calm - N/A   Clear
6:30 AM 46.4 °F 45.2 °F 44.6 °F 93% 30.09 in 10.0 mi NE 3.5 mph - N/A   Clear
6:50 AM 46.4 °F - 46.4 °F 100% 30.09 in 10.0 mi Calm Calm - N/A   Clear
7:10 AM 48.2 °F - 46.4 °F 93% 30.10 in 10.0 mi Calm Calm - N/A   Clear
7:50 AM 51.8 °F - 50.0 °F 94% 30.11 in 10.0 mi Calm Calm - N/A   Clear
8:10 AM - - - N/A% 30.10 in 10.0 mi Calm Calm - N/A   Clear
8:30 AM 59.0 °F - 51.8 °F 77% 30.11 in 10.0 mi Calm Calm - N/A   Clear
8:50 AM 60.8 °F - 51.8 °F 72% 30.11 in 10.0 mi Calm Calm - N/A   Clear
9:10 AM 64.4 °F - 51.8 °F 64% 30.10 in 10.0 mi SSW 3.5 mph - N/A   Clear
9:30 AM 68.0 °F - 51.8 °F 56% 30.10 in 10.0 mi SSW 5.8 mph - N/A   Clear
9:50 AM 69.8 °F - 48.2 °F 46% 30.10 in 10.0 mi SSW 4.6 mph - N/A   Clear
10:10 AM 71.6 °F - 48.2 °F 43% 30.10 in 10.0 mi WSW 4.6 mph - N/A   Clear
10:30 AM 73.4 °F - 46.4 °F 38% 30.10 in 10.0 mi SSW 6.9 mph - N/A   Clear
10:50 AM 75.2 °F - 46.4 °F 36% 30.10 in 10.0 mi WSW 5.8 mph - N/A   Clear
11:10 AM 75.2 °F - 46.4 °F 36% 30.10 in 10.0 mi SW 5.8 mph - N/A   Clear
11:30 AM 75.2 °F - 46.4 °F 36% 30.09 in 10.0 mi West 9.2 mph - N/A   Clear
11:50 AM 77.0 °F - 46.4 °F 34% 30.09 in 10.0 mi West 10.4 mph - N/A   Clear
12:10 PM 78.8 °F - 46.4 °F 32% 30.08 in 10.0 mi SSW 6.9 mph - N/A   Clear
12:30 PM 78.8 °F - 46.4 °F 32% 30.07 in 10.0 mi WSW 11.5 mph - N/A   Clear
12:50 PM 80.6 °F - 48.2 °F 32% 30.06 in 10.0 mi WSW 10.4 mph - N/A   Partly Cloudy
1:10 PM - - - N/A% 30.04 in 10.0 mi SW 6.9 mph - N/A   Clear
1:30 PM 82.4 °F - 46.4 °F 28% 30.04 in 10.0 mi West 6.9 mph - N/A   Clear
1:50 PM 80.6 °F - 46.4 °F 30% 30.02 in 10.0 mi WSW 5.8 mph - N/A   Clear
2:10 PM 80.6 °F - 44.6 °F 28% 30.02 in 10.0 mi WNW 4.6 mph - N/A   Clear
2:30 PM 80.6 °F - 44.6 °F 28% 30.01 in 10.0 mi WNW 4.6 mph - N/A   Clear
2:50 PM 82.4 °F - 44.6 °F 26% 30.01 in 10.0 mi West 5.8 mph 16.1 mph N/A   Partly Cloudy
3:10 PM 82.4 °F - 44.6 °F 26% 30.00 in 10.0 mi West 10.4 mph 18.4 mph N/A   Clear
3:30 PM 80.6 °F - 42.8 °F 26% 29.99 in 10.0 mi West 9.2 mph - N/A   Clear
3:50 PM 82.4 °F - 42.8 °F 25% 29.98 in 10.0 mi WSW 11.5 mph - N/A   Clear
4:10 PM 82.4 °F - 42.8 °F 25% 29.98 in 10.0 mi West 11.5 mph - N/A   Clear
4:30 PM 80.6 °F - 42.8 °F 26% 29.97 in 10.0 mi SW 8.1 mph - N/A   Clear
4:50 PM 82.4 °F - 42.8 °F 25% 29.97 in 10.0 mi WSW 8.1 mph - N/A   Clear
5:10 PM 82.4 °F - 39.2 °F 21% 29.97 in 10.0 mi WNW 6.9 mph - N/A   Clear
5:30 PM 80.6 °F - 41.0 °F 24% 29.97 in 10.0 mi WNW 10.4 mph - N/A   Clear
5:50 PM 80.6 °F - 42.8 °F 26% 29.97 in 10.0 mi NW 3.5 mph - N/A   Partly Cloudy
6:10 PM 80.6 °F - 42.8 °F 26% 29.97 in 10.0 mi WNW 6.9 mph - N/A   Partly Cloudy
6:30 PM 78.8 °F - 42.8 °F 28% 29.97 in 10.0 mi WNW 4.6 mph - N/A   Clear
6:50 PM 75.2 °F - 44.6 °F 34% 29.97 in 10.0 mi Calm Calm - N/A   Clear
7:10 PM 73.4 °F - 50.0 °F 44% 29.97 in 10.0 mi Calm Calm - N/A   Clear
7:30 PM 69.8 °F - 53.6 °F 56% 29.97 in 10.0 mi Calm Calm - N/A   Clear
7:50 PM 68.0 °F - 51.8 °F 56% 29.97 in 10.0 mi Calm Calm - N/A   Clear
8:10 PM 66.2 °F - 51.8 °F 60% 29.98 in 10.0 mi Calm Calm - N/A   Clear
8:30 PM 64.4 °F - 53.6 °F 68% 29.98 in 10.0 mi Calm Calm - N/A   Clear
8:50 PM 62.6 °F - 53.6 °F 72% 29.99 in 10.0 mi Calm Calm - N/A   Clear
9:10 PM 62.6 °F - 53.6 °F 72% 29.99 in 10.0 mi Calm Calm - N/A   Clear
9:30 PM 60.8 °F - 53.6 °F 77% 30.00 in 10.0 mi Calm Calm - N/A   Partly Cloudy
9:50 PM 60.8 °F - 53.6 °F 77% 30.00 in 10.0 mi Calm Calm - N/A   Clear
10:10 PM 57.2 °F - 51.8 °F 82% 30.01 in 10.0 mi Calm Calm - N/A   Clear
10:30 PM 57.2 °F - 51.8 °F 82% 30.01 in 10.0 mi Calm Calm - N/A   Clear
10:50 PM 55.4 °F - 51.8 °F 88% 30.01 in 10.0 mi Calm Calm - N/A   Clear
11:10 PM 55.4 °F - 50.0 °F 82% 30.02 in 10.0 mi Calm Calm - N/A   Clear
11:30 PM - - - N/A% 30.01 in 10.0 mi Calm Calm - N/A   Clear
11:50 PM 53.6 °F - 50.0 °F 88% 30.02 in 10.0 mi Calm Calm - N/A   Clear